2022/12/23 00:00:00,27.4,-4.0
2022/12/23 00:10:00,27.6,-4.0
2022/12/23 00:20:00,27.9,-4.4
2022/12/23 00:30:00,28.6,-4.6
2022/12/23 00:40:00,29.3,-4.6
2022/12/23 00:50:00,29.7,-4.6
2022/12/23 01:00:00,29.9,-4.7
2022/12/23 01:10:00,29.8,-4.5
2022/12/23 01:20:00,30.1,-4.6
2022/12/23 01:30:00,29.8,-4.3
2022/12/23 01:40:00,29.9,-4.4
2022/12/23 01:50:00,29.9,-4.4
2022/12/23 02:00:00,29.8,-4.5
2022/12/23 02:10:00,29.2,-4.6
2022/12/23 02:20:00,28.0,-4.8
2022/12/23 02:30:00,28.6,-4.8
2022/12/23 02:40:00,29.4,-6.0
2022/12/23 02:50:00,30.0,-4.8
2022/12/23 03:00:00,30.7,-4.9
2022/12/23 03:10:00,31.6,-4.8
2022/12/23 03:20:00,32.1,-4.9
2022/12/23 03:30:00,32.9,-4.9
2022/12/23 03:40:00,33.4,-4.8
2022/12/23 03:50:00,34.0,-4.8
2022/12/23 04:00:00,34.9,-4.8
2022/12/23 04:10:00,36.1,-4.7
2022/12/23 04:20:00,36.5,-4.8
2022/12/23 04:30:00,36.3,-4.7
2022/12/23 04:40:00,36.5,-4.8
2022/12/23 04:50:00,37.2,-4.6
2022/12/23 05:00:00,38.0,-4.8
2022/12/23 05:10:00,38.2,-4.8
2022/12/23 05:20:00,38.6,-4.8
2022/12/23 05:30:00,39.0,-4.8
2022/12/23 05:40:00,39.5,-4.8
2022/12/23 05:50:00,39.9,-4.7
2022/12/23 06:00:00,40.2,-5.0
2022/12/23 06:10:00,39.0,-5.1
2022/12/23 06:20:00,35.4,-5.0
2022/12/23 06:30:00,35.3,-5.4
2022/12/23 06:40:00,35.3,-5.1
2022/12/23 06:50:00,35.3,-5.0
2022/12/23 07:00:00,35.7,-5.0
2022/12/23 07:10:00,36.1,-4.9
2022/12/23 07:20:00,37.1,-4.9
2022/12/23 07:30:00,37.6,-4.9
2022/12/23 07:40:00,38.1,-4.8
2022/12/23 07:50:00,38.6,-4.6
2022/12/23 08:00:00,38.7,-4.8
2022/12/23 08:10:00,38.6,-4.7
2022/12/23 08:20:00,39.5,-4.4
2022/12/23 08:30:00,40.0,-4.5
2022/12/23 08:40:00,40.1,-4.3
2022/12/23 08:50:00,39.9,-4.4
2022/12/23 09:00:00,39.7,-3.5
2022/12/23 09:10:00,39.8,-3.9
2022/12/23 09:20:00,40.1,-4.3
2022/12/23 09:30:00,40.4,-4.6
2022/12/23 09:40:00,40.6,-4.6
2022/12/23 09:50:00,41.2,-4.5
2022/12/23 10:00:00,42.1,-4.1
2022/12/23 10:10:00,43.1,-4.4
2022/12/23 10:20:00,44.9,-4.7
2022/12/23 10:30:00,46.5,-4.6
2022/12/23 10:40:00,47.0,-4.5
2022/12/23 10:50:00,48.3,-4.3
2022/12/23 11:00:00,49.8,-4.3
2022/12/23 11:10:00,50.8,-4.1
2022/12/23 11:20:00,---,-1.7
2022/12/23 11:30:00,42.2,-1.5
2022/12/23 11:40:00,42.9,-1.7
2022/12/23 11:50:00,43.4,-0.9
2022/12/23 12:00:00,43.9,-1.3
2022/12/23 12:10:00,43.9,-2.2
2022/12/23 12:20:00,44.0, 1.0
2022/12/23 12:30:00,43.6, 0.4
2022/12/23 12:40:00,43.3, 0.3
2022/12/23 12:50:00,21.9,-1.6
2022/12/23 13:00:00,43.6,-1.8
2022/12/23 13:10:00,43.6,-1.7
2022/12/23 13:20:00,43.8,-3.4
2022/12/23 13:30:00,45.0,-2.9
2022/12/23 13:40:00,45.5,-3.3
2022/12/23 13:50:00,46.6,-3.2
2022/12/23 14:00:00,47.1,-4.1
2022/12/23 14:10:00,48.4,-3.6
2022/12/23 14:20:00,49.1,-3.5
2022/12/23 14:30:00,50.2,-3.9
2022/12/23 14:40:00,51.8,-3.8
2022/12/23 14:50:00,52.6,-3.8
2022/12/23 15:00:00,53.8,-3.6
2022/12/23 15:10:00,54.3,-3.6
2022/12/23 15:20:00,55.3,-3.7
2022/12/23 15:30:00,56.1,-4.0
2022/12/23 15:40:00,56.2,-3.9
2022/12/23 15:50:00,56.5,-3.8
2022/12/23 16:00:00,56.5,-4.3
2022/12/23 16:10:00,56.3,-4.3
2022/12/23 16:20:00,56.6,-3.9
2022/12/23 16:30:00,56.6,-3.8
2022/12/23 16:40:00,56.4,-4.3
2022/12/23 16:50:00,56.4,-4.0
2022/12/23 17:00:00,56.4,-4.3
2022/12/23 17:10:00,56.2,-4.1
2022/12/23 17:20:00,56.2,-4.1
2022/12/23 17:30:00,56.1,-4.2
2022/12/23 17:40:00,56.6,-4.3
2022/12/23 17:50:00,57.0,-4.1
2022/12/23 18:00:00,57.2,-3.8
2022/12/23 18:10:00,57.3,-4.4
2022/12/23 18:20:00,57.5,-4.3
2022/12/23 18:30:00,58.0,-4.2
2022/12/23 18:40:00,58.1,-4.0
2022/12/23 18:50:00,58.0,-3.9
2022/12/23 19:00:00,57.8,-4.1
2022/12/23 19:10:00,57.6,-4.2
2022/12/23 19:20:00,57.2,-3.9
2022/12/23 19:30:00,56.9,-4.2
2022/12/23 19:40:00,56.7,-3.8
2022/12/23 19:50:00,57.4,-4.0
2022/12/23 20:00:00,57.8,-3.8
2022/12/23 20:10:00,57.9,-3.5
2022/12/23 20:20:00,57.8,-3.6
2022/12/23 20:30:00,58.5,-3.8
2022/12/23 20:40:00,58.8,-3.6
2022/12/23 20:50:00,58.5,-3.3
2022/12/23 21:00:00,58.6,-3.3
2022/12/23 21:10:00,58.5,-3.3
2022/12/23 21:20:00,58.6,-3.4
2022/12/23 21:30:00,58.8,-3.4
2022/12/23 21:40:00,59.8,-3.3
2022/12/23 21:50:00,61.1,-3.4
2022/12/23 22:00:00,61.4,-3.3
2022/12/23 22:10:00,62.4,-3.2
2022/12/23 22:20:00,63.6,-3.3
2022/12/23 22:30:00,64.2,-3.2
2022/12/23 22:40:00,64.4,-3.4
2022/12/23 22:50:00,64.5,-3.2
2022/12/23 23:00:00,65.2,-3.3
2022/12/23 23:10:00,65.3,-3.4
2022/12/23 23:20:00,65.4,-3.3
2022/12/23 23:30:00,65.4,-3.4
2022/12/23 23:40:00,66.3,-3.6
2022/12/23 23:50:00,67.9,-3.4
